EAG5503 SBSP-SBNF

Flight info

Callsign EAG5503
Flight time 0h 47m
Altitude 30000
Route MADNI UZ92 PUBIS
Aircraft B738/M-SDE2E3FGHIRWXY/LB1

Departure

Time 2026-05-06 18:18
Airport Congonhas–Deputado Freitas Nobre Airport (SBSP)

Arrival

Time 2026-05-06 19:05
Airport Ministro Victor Konder International Airport (SBNF)
Time Latitude Longitude Altitude Speed Heading
2026-05-06 18:06 -23.62717 -46.65821 2600 ft 0 kts 237°
2026-05-06 18:09 -23.62710 -46.65807 2600 ft 4 kts 250°
2026-05-06 18:09 -23.62708 -46.65781 2600 ft 4 kts 299°
2026-05-06 18:09 -23.62722 -46.65764 2600 ft 1 kts 327°
2026-05-06 18:10 -23.62726 -46.65762 2600 ft 0 kts 327°
2026-05-06 18:13 -23.62724 -46.65763 2600 ft 1 kts 328°
2026-05-06 18:14 -23.62702 -46.65774 2600 ft 6 kts 352°
2026-05-06 18:14 -23.62654 -46.65771 2601 ft 7 kts 353°
2026-05-06 18:14 -23.62611 -46.65793 2601 ft 7 kts 327°
2026-05-06 18:14 -23.62572 -46.65821 2601 ft 7 kts 327°
2026-05-06 18:15 -23.62533 -46.65846 2601 ft 7 kts 329°
2026-05-06 18:15 -23.62494 -46.65873 2600 ft 7 kts 328°
2026-05-06 18:15 -23.62447 -46.65905 2600 ft 13 kts 324°
2026-05-06 18:15 -23.62369 -46.65959 2599 ft 13 kts 327°
2026-05-06 18:16 -23.62292 -46.66014 2599 ft 13 kts 326°
2026-05-06 18:16 -23.62214 -46.66058 2591 ft 13 kts 327°
2026-05-06 18:16 -23.62142 -46.66110 2593 ft 12 kts 329°
2026-05-06 18:16 -23.62118 -46.66125 2591 ft 4 kts 330°
2026-05-06 18:17 -23.62077 -46.66137 2594 ft 9 kts
2026-05-06 18:17 -23.62034 -46.66092 2595 ft 10 kts 108°
2026-05-06 18:17 -23.62062 -46.66066 2592 ft 0 kts 147°
2026-05-06 18:17 -23.62115 -46.66029 2596 ft 39 kts 147°
2026-05-06 18:18 -23.62588 -46.65700 2604 ft 119 kts 147°
2026-05-06 18:18 -23.63463 -46.65099 2817 ft 168 kts 147°
2026-05-06 18:18 -23.64532 -46.64356 3428 ft 194 kts 146°
2026-05-06 18:18 -23.65766 -46.63665 4165 ft 209 kts 167°
2026-05-06 18:19 -23.67347 -46.63799 4409 ft 251 kts 191°
2026-05-06 18:19 -23.69177 -46.64179 4698 ft 279 kts 187°
2026-05-06 18:19 -23.71110 -46.64458 5508 ft 283 kts 186°
2026-05-06 18:19 -23.73080 -46.64698 6358 ft 287 kts 186°
2026-05-06 18:20 -23.75046 -46.65083 7075 ft 289 kts 202°
2026-05-06 18:20 -23.76690 -46.66309 6929 ft 297 kts 229°
2026-05-06 18:20 -23.77579 -46.68382 7264 ft 303 kts 260°
2026-05-06 18:20 -23.77704 -46.70608 8509 ft 288 kts 270°
2026-05-06 18:21 -23.78145 -46.72754 9337 ft 298 kts 244°
2026-05-06 18:21 -23.79251 -46.74675 10208 ft 301 kts 236°
2026-05-06 18:21 -23.80495 -46.76541 10871 ft 309 kts 234°
2026-05-06 18:21 -23.81777 -46.78465 11504 ft 317 kts 234°
2026-05-06 18:22 -23.83054 -46.80458 12214 ft 322 kts 235°
2026-05-06 18:22 -23.84299 -46.82468 12993 ft 324 kts 235°
2026-05-06 18:22 -23.85557 -46.84529 13722 ft 329 kts 234°
2026-05-06 18:22 -23.86894 -46.86561 14418 ft 329 kts 224°
2026-05-06 18:23 -23.88755 -46.87970 15116 ft 326 kts 202°
2026-05-06 18:23 -23.90937 -46.88601 15847 ft 325 kts 189°
2026-05-06 18:23 -23.93179 -46.89014 16545 ft 327 kts 188°
2026-05-06 18:23 -23.95438 -46.89394 17228 ft 330 kts 188°
2026-05-06 18:24 -23.97728 -46.89775 17904 ft 333 kts 188°
2026-05-06 18:24 -24.00034 -46.90164 18568 ft 336 kts 188°
2026-05-06 18:24 -24.02355 -46.90561 19152 ft 339 kts 189°
2026-05-06 18:24 -24.04663 -46.90960 19752 ft 341 kts 189°
2026-05-06 18:25 -24.07021 -46.91372 20372 ft 344 kts 189°
2026-05-06 18:25 -24.09388 -46.91788 20993 ft 346 kts 189°
2026-05-06 18:25 -24.11768 -46.92208 21605 ft 348 kts 190°
2026-05-06 18:25 -24.14172 -46.92633 22169 ft 351 kts 190°
2026-05-06 18:26 -24.16596 -46.93062 22742 ft 354 kts 190°
2026-05-06 18:26 -24.19034 -46.93495 23319 ft 357 kts 190°
2026-05-06 18:26 -24.21496 -46.93933 23849 ft 359 kts 191°
2026-05-06 18:26 -24.23973 -46.94374 24354 ft 360 kts 191°
2026-05-06 18:27 -24.26449 -46.94814 24891 ft 360 kts 191°
2026-05-06 18:27 -24.28927 -46.95253 25425 ft 361 kts 191°
2026-05-06 18:27 -24.31408 -46.95694 25939 ft 362 kts 191°
2026-05-06 18:27 -24.33905 -46.96139 26410 ft 363 kts 191°
2026-05-06 18:28 -24.36402 -46.96584 26901 ft 364 kts 191°
2026-05-06 18:28 -24.38912 -46.97031 27389 ft 365 kts 191°
2026-05-06 18:28 -24.41393 -46.97472 27851 ft 367 kts 191°
2026-05-06 18:28 -24.43911 -46.97920 28323 ft 367 kts 191°
2026-05-06 18:29 -24.46438 -46.98369 28778 ft 369 kts 191°
2026-05-06 18:29 -24.48976 -46.98820 29220 ft 370 kts 192°
2026-05-06 18:29 -24.51526 -46.99272 29656 ft 372 kts 192°
2026-05-06 18:29 -24.54088 -46.99728 30067 ft 374 kts 192°
2026-05-06 18:30 -24.59338 -47.00684 30116 ft 390 kts 194°
2026-05-06 18:30 -24.61903 -47.01684 30117 ft 395 kts 209°
2026-05-06 18:30 -24.64250 -47.03249 30122 ft 403 kts 213°
2026-05-06 18:31 -24.69006 -47.06697 30116 ft 414 kts 213°
2026-05-06 18:31 -24.73831 -47.10203 30100 ft 415 kts 213°
2026-05-06 18:32 -24.78681 -47.13675 30103 ft 415 kts 213°
2026-05-06 18:32 -24.83523 -47.17120 30105 ft 413 kts 213°
2026-05-06 18:33 -24.88347 -47.20552 30100 ft 412 kts 213°
2026-05-06 18:33 -24.93145 -47.23970 30107 ft 410 kts 213°
2026-05-06 18:34 -24.97900 -47.27360 30109 ft 409 kts 213°
2026-05-06 18:34 -25.02669 -47.30764 30113 ft 408 kts 213°
2026-05-06 18:35 -25.07437 -47.34169 30108 ft 408 kts 213°
2026-05-06 18:35 -25.12206 -47.37578 30107 ft 408 kts 213°
2026-05-06 18:36 -25.16973 -47.40987 30106 ft 409 kts 213°
2026-05-06 18:36 -25.21755 -47.44413 30107 ft 409 kts 213°
2026-05-06 18:37 -25.26516 -47.47821 30110 ft 410 kts 213°
2026-05-06 18:37 -25.31313 -47.51248 30106 ft 411 kts 213°
2026-05-06 18:38 -25.36124 -47.54687 30106 ft 411 kts 213°
2026-05-06 18:38 -25.40927 -47.58127 30107 ft 411 kts 213°
2026-05-06 18:39 -25.45702 -47.61568 30104 ft 412 kts 213°
2026-05-06 18:40 -25.52895 -47.66762 30103 ft 412 kts 213°
2026-05-06 18:40 -25.57695 -47.70227 30115 ft 411 kts 213°
2026-05-06 18:41 -25.62498 -47.73698 30100 ft 411 kts 213°
2026-05-06 18:41 -25.67286 -47.77160 30098 ft 411 kts 213°
2026-05-06 18:42 -25.72029 -47.80593 30006 ft 399 kts 214°
2026-05-06 18:42 -25.74339 -47.82266 29654 ft 391 kts 214°
2026-05-06 18:42 -25.76603 -47.83907 29191 ft 386 kts 214°
2026-05-06 18:42 -25.78838 -47.85528 28736 ft 382 kts 214°
2026-05-06 18:43 -25.81057 -47.87137 28275 ft 379 kts 214°
2026-05-06 18:43 -25.83253 -47.88730 27809 ft 375 kts 214°
2026-05-06 18:43 -25.85403 -47.90291 27373 ft 373 kts 214°
2026-05-06 18:43 -25.87567 -47.91862 26932 ft 370 kts 214°
2026-05-06 18:44 -25.89716 -47.93424 26491 ft 368 kts 214°
2026-05-06 18:44 -25.91853 -47.94976 26054 ft 366 kts 214°
2026-05-06 18:44 -25.93980 -47.96522 25608 ft 364 kts 214°
2026-05-06 18:44 -25.96101 -47.98064 25157 ft 363 kts 214°
2026-05-06 18:45 -25.98214 -47.99601 24701 ft 363 kts 214°
2026-05-06 18:45 -26.00324 -48.01138 24260 ft 362 kts 214°
2026-05-06 18:45 -26.02434 -48.02676 23814 ft 362 kts 214°
2026-05-06 18:45 -26.03802 -48.03732 23457 ft 362 kts 219°
2026-05-06 18:46 -26.06326 -48.06266 22477 ft 368 kts 225°
2026-05-06 18:46 -26.08132 -48.08278 21991 ft 366 kts 226°
2026-05-06 18:46 -26.09910 -48.10256 21550 ft 364 kts 225°
2026-05-06 18:46 -26.11708 -48.12219 21110 ft 362 kts 225°
2026-05-06 18:47 -26.13516 -48.14160 20679 ft 359 kts 224°
2026-05-06 18:47 -26.15315 -48.16076 20267 ft 357 kts 224°
2026-05-06 18:47 -26.17106 -48.17982 19851 ft 355 kts 224°
2026-05-06 18:47 -26.18968 -48.19793 19355 ft 356 kts 217°
2026-05-06 18:48 -26.21046 -48.21314 18870 ft 358 kts 213°
2026-05-06 18:48 -26.23176 -48.22758 18410 ft 358 kts 212°
2026-05-06 18:48 -26.25306 -48.24185 17952 ft 356 kts 213°
2026-05-06 18:48 -26.27424 -48.25615 17510 ft 354 kts 213°
2026-05-06 18:49 -26.29514 -48.27043 17087 ft 351 kts 213°
2026-05-06 18:49 -26.31587 -48.28472 16670 ft 349 kts 213°
2026-05-06 18:49 -26.33642 -48.29898 16275 ft 347 kts 213°
2026-05-06 18:49 -26.35684 -48.31321 15870 ft 345 kts 214°
2026-05-06 18:50 -26.37719 -48.32743 15470 ft 344 kts 214°
2026-05-06 18:50 -26.39716 -48.34140 15076 ft 343 kts 214°
2026-05-06 18:50 -26.41740 -48.35557 14657 ft 343 kts 214°
2026-05-06 18:50 -26.43758 -48.36970 14251 ft 342 kts 214°
2026-05-06 18:51 -26.45775 -48.38383 13833 ft 342 kts 214°
2026-05-06 18:51 -26.47787 -48.39794 13388 ft 341 kts 214°
2026-05-06 18:51 -26.49795 -48.41202 12984 ft 340 kts 214°
2026-05-06 18:51 -26.51795 -48.42605 12580 ft 338 kts 214°
2026-05-06 18:52 -26.53786 -48.44002 12186 ft 336 kts 214°
2026-05-06 18:52 -26.55765 -48.45391 11794 ft 335 kts 214°
2026-05-06 18:52 -26.57731 -48.46772 11400 ft 333 kts 214°
2026-05-06 18:52 -26.59684 -48.48144 11008 ft 332 kts 214°
2026-05-06 18:53 -26.61633 -48.49512 10724 ft 327 kts 214°
2026-05-06 18:53 -26.63534 -48.50847 10545 ft 319 kts 214°
2026-05-06 18:53 -26.65366 -48.52136 10407 ft 310 kts 214°
2026-05-06 18:53 -26.67153 -48.53395 10255 ft 296 kts 214°
2026-05-06 18:54 -26.68851 -48.54592 10138 ft 282 kts 214°
2026-05-06 18:54 -26.70326 -48.55976 9904 ft 277 kts 234°
2026-05-06 18:54 -26.71410 -48.57745 9631 ft 274 kts 238°
2026-05-06 18:54 -26.72465 -48.59526 9279 ft 276 kts 238°
2026-05-06 18:55 -26.73529 -48.61306 8992 ft 275 kts 238°
2026-05-06 18:55 -26.74595 -48.63076 8707 ft 274 kts 238°
2026-05-06 18:55 -26.75663 -48.64837 8429 ft 273 kts 238°
2026-05-06 18:55 -26.76728 -48.66588 8153 ft 272 kts 238°
2026-05-06 18:56 -26.77782 -48.68318 7879 ft 271 kts 238°
2026-05-06 18:56 -26.78845 -48.70062 7604 ft 269 kts 238°
2026-05-06 18:56 -26.79867 -48.71736 7490 ft 250 kts 238°
2026-05-06 18:56 -26.80814 -48.73288 7349 ft 232 kts 238°
2026-05-06 18:57 -26.81693 -48.74731 7224 ft 216 kts 239°
2026-05-06 18:57 -26.82537 -48.76123 6719 ft 223 kts 239°
2026-05-06 18:57 -26.83424 -48.77584 6209 ft 230 kts 239°
2026-05-06 18:57 -26.84317 -48.79049 5806 ft 224 kts 239°
2026-05-06 18:58 -26.85182 -48.80469 5467 ft 216 kts 239°
2026-05-06 18:58 -26.86014 -48.81837 5143 ft 208 kts 239°
2026-05-06 18:58 -26.86803 -48.83137 4856 ft 201 kts 239°
2026-05-06 18:58 -26.87578 -48.84418 4576 ft 197 kts 239°
2026-05-06 18:59 -26.88348 -48.85678 4294 ft 195 kts 236°
2026-05-06 18:59 -26.89412 -48.86585 4001 ft 196 kts 198°
2026-05-06 18:59 -26.90728 -48.86501 3837 ft 192 kts 157°
2026-05-06 18:59 -26.91886 -48.85746 3692 ft 194 kts 147°
2026-05-06 19:00 -26.92998 -48.84899 3494 ft 192 kts 146°
2026-05-06 19:00 -26.93729 -48.84338 3362 ft 191 kts 146°
2026-05-06 19:00 -26.95166 -48.83236 3101 ft 185 kts 147°
2026-05-06 19:00 -26.95870 -48.82701 2997 ft 185 kts 146°
2026-05-06 19:01 -26.97006 -48.81298 2742 ft 188 kts 104°
2026-05-06 19:01 -26.96919 -48.79912 2601 ft 179 kts 61°
2026-05-06 19:01 -26.96295 -48.78748 2458 ft 169 kts 54°
2026-05-06 19:01 -26.95638 -48.77672 2286 ft 166 kts 54°
2026-05-06 19:02 -26.95190 -48.76964 2177 ft 163 kts 54°
2026-05-06 19:02 -26.94556 -48.75939 2059 ft 157 kts 56°
2026-05-06 19:02 -26.93944 -48.74936 1950 ft 154 kts 56°
2026-05-06 19:02 -26.93341 -48.73949 1819 ft 152 kts 56°
2026-05-06 19:03 -26.92749 -48.72979 1612 ft 151 kts 57°
2026-05-06 19:03 -26.92156 -48.72007 1417 ft 150 kts 56°
2026-05-06 19:03 -26.91555 -48.71055 1238 ft 148 kts 54°
2026-05-06 19:03 -26.91003 -48.70101 1114 ft 145 kts 59°
2026-05-06 19:04 -26.90452 -48.69148 971 ft 146 kts 56°
2026-05-06 19:04 -26.89871 -48.68219 760 ft 140 kts 55°
2026-05-06 19:04 -26.89325 -48.67368 487 ft 132 kts 55°
2026-05-06 19:04 -26.88813 -48.66518 215 ft 130 kts 56°
2026-05-06 19:05 -26.88304 -48.65685 47 ft 126 kts 55°
2026-05-06 19:05 -26.87864 -48.64968 29 ft 86 kts 56°
2026-05-06 19:05 -26.87646 -48.64608 30 ft 42 kts 56°
2026-05-06 19:05 -26.87579 -48.64500 24 ft 7 kts 55°
2026-05-06 19:06 -26.87551 -48.64455 30 ft 7 kts 58°
2026-05-06 19:06 -26.87540 -48.64410 28 ft 1 kts 33°
2026-05-06 19:06 -26.87535 -48.64416 29 ft 1 kts 311°
2026-05-06 19:06 -26.87538 -48.64433 29 ft 5 kts 242°
2026-05-06 19:07 -26.87569 -48.64484 30 ft 9 kts 236°
2026-05-06 19:07 -26.87603 -48.64540 30 ft 9 kts 236°
2026-05-06 19:07 -26.87637 -48.64596 30 ft 8 kts 236°
2026-05-06 19:07 -26.87670 -48.64650 31 ft 8 kts 236°
2026-05-06 19:08 -26.87702 -48.64702 30 ft 8 kts 236°
2026-05-06 19:08 -26.87733 -48.64753 31 ft 8 kts 236°
2026-05-06 19:08 -26.87762 -48.64802 30 ft 8 kts 236°
2026-05-06 19:08 -26.87792 -48.64850 30 ft 7 kts 235°
2026-05-06 19:09 -26.87827 -48.64887 29 ft 7 kts 191°
2026-05-06 19:09 -26.87872 -48.64866 29 ft 8 kts 148°
2026-05-06 19:09 -26.87913 -48.64858 28 ft 5 kts 220°
2026-05-06 19:09 -26.87933 -48.64890 28 ft 5 kts 236°
2026-05-06 19:10 -26.87953 -48.64923 28 ft 5 kts 236°
2026-05-06 19:10 -26.87983 -48.64925 28 ft 5 kts 145°
2026-05-06 19:10 -26.87998 -48.64913 28 ft 0 kts 146°
2026-05-06 19:25 -26.87991 -48.64919 28 ft 2 kts 147°
2026-05-06 19:25 -26.87970 -48.64930 28 ft 4 kts 185°
2026-05-06 19:26 -26.87950 -48.64917 28 ft 4 kts 234°
2026-05-06 19:26 -26.87943 -48.64906 28 ft 1 kts 236°
2026-05-06 19:26 -26.87943 -48.64905 28 ft 0 kts 236°
2026-05-06 19:29 -26.87947 -48.64912 28 ft 3 kts 236°
2026-05-06 19:30 -26.87963 -48.64947 28 ft 6 kts 268°
2026-05-06 19:30 -26.87940 -48.64986 29 ft 6 kts 320°
2026-05-06 19:30 -26.87906 -48.65013 29 ft 6 kts 310°
2026-05-06 19:30 -26.87920 -48.65060 28 ft 10 kts 236°
2026-05-06 19:31 -26.87991 -48.65174 27 ft 21 kts 235°
2026-05-06 19:31 -26.88072 -48.65311 28 ft 21 kts 235°
2026-05-06 19:31 -26.88230 -48.65571 29 ft 20 kts 236°
2026-05-06 19:32 -26.88303 -48.65690 29 ft 17 kts 237°
2026-05-06 19:32 -26.88366 -48.65761 29 ft 9 kts 233°
2026-05-06 19:32 -26.88356 -48.65777 29 ft 1 kts 15°
2026-05-06 19:32 -26.88352 -48.65769 29 ft 4 kts 55°
2026-05-06 19:33 -26.88222 -48.65556 29 ft 78 kts 56°
2026-05-06 19:33 -26.87749 -48.64780 105 ft 153 kts 56°
2026-05-06 19:33 -26.87130 -48.63703 777 ft 179 kts 58°
2026-05-06 19:33 -26.86452 -48.62440 1752 ft 190 kts 55°
2026-05-06 19:34 -26.85657 -48.61153 2312 ft 216 kts 53°
2026-05-06 19:34 -26.84724 -48.59702 2675 ft 238 kts 52°
2026-05-06 19:34 -26.83403 -48.58605 3367 ft 240 kts 14°
2026-05-06 19:34 -26.81753 -48.58637 4245 ft 241 kts 345°
2026-05-06 19:35 -26.80165 -48.59290 5201 ft 243 kts 336°
2026-05-06 19:35 -26.78599 -48.60067 5693 ft 249 kts 335°
2026-05-06 19:35 -26.76906 -48.60934 5471 ft 289 kts 335°
2026-05-06 19:35 -26.75062 -48.61863 6479 ft 286 kts 335°
2026-05-06 19:36 -26.73274 -48.62751 7754 ft 277 kts 335°
2026-05-06 19:36 -26.71536 -48.63607 9014 ft 269 kts 335°
2026-05-06 19:36 -26.69864 -48.64425 10213 ft 264 kts 336°
2026-05-06 19:36 -26.68171 -48.65248 11157 ft 267 kts 335°
2026-05-06 19:37 -26.66454 -48.66090 12067 ft 271 kts 335°
2026-05-06 19:37 -26.64718 -48.66939 12917 ft 274 kts 335°
2026-05-06 19:37 -26.62925 -48.67730 13692 ft 282 kts 343°
2026-05-06 19:37 -26.61619 -48.68043 13911 ft 298 kts 349°
2026-05-06 19:38 -26.58738 -48.68448 14442 ft 320 kts 352°
2026-05-06 19:38 -26.56495 -48.68723 15122 ft 326 kts 352°
2026-05-06 19:38 -26.54229 -48.69014 15852 ft 330 kts 351°
2026-05-06 19:38 -26.51964 -48.69323 16548 ft 335 kts 351°
2026-05-06 19:39 -26.49632 -48.69656 17243 ft 340 kts 350°
2026-05-06 19:39 -26.47265 -48.70005 17943 ft 345 kts 350°
2026-05-06 19:39 -26.44865 -48.70365 18595 ft 350 kts 349°
2026-05-06 19:39 -26.42438 -48.70728 19215 ft 355 kts 349°
2026-05-06 19:40 -26.39979 -48.71093 19869 ft 358 kts 349°
2026-05-06 19:40 -26.37492 -48.71460 20518 ft 361 kts 349°
2026-05-06 19:40 -26.34979 -48.71831 21108 ft 367 kts 349°
2026-05-06 19:40 -26.32428 -48.72209 21720 ft 371 kts 349°
2026-05-06 19:41 -26.29855 -48.72590 22348 ft 375 kts 349°
2026-05-06 19:41 -26.27259 -48.72975 22961 ft 379 kts 349°
2026-05-06 19:41 -26.24663 -48.73359 23556 ft 383 kts 349°
2026-05-06 19:41 -26.22007 -48.73753 24066 ft 387 kts 349°
2026-05-06 19:42 -26.19326 -48.74153 24554 ft 390 kts 348°
2026-05-06 19:42 -26.16623 -48.74556 25084 ft 394 kts 348°
2026-05-06 19:42 -26.13891 -48.74965 25568 ft 398 kts 348°
2026-05-06 19:42 -26.11095 -48.75134 25979 ft 410 kts
2026-05-06 19:43 -26.08297 -48.74383 26495 ft 416 kts 13°
2026-05-06 19:43 -26.05511 -48.73461 27011 ft 419 kts 14°
2026-05-06 19:43 -26.02705 -48.72525 27466 ft 423 kts 14°
2026-05-06 19:43 -25.99869 -48.71587 27898 ft 427 kts 13°
2026-05-06 19:44 -25.97004 -48.70654 28340 ft 431 kts 13°
2026-05-06 19:44 -25.94108 -48.69717 28785 ft 435 kts 13°
2026-05-06 19:44 -25.91185 -48.68778 29215 ft 439 kts 13°
2026-05-06 19:44 -25.88241 -48.67841 29606 ft 443 kts 12°
2026-05-06 19:45 -25.85259 -48.66891 29998 ft 447 kts 12°
2026-05-06 19:45 -25.82260 -48.65936 30379 ft 450 kts 12°
2026-05-06 19:45 -25.79278 -48.64991 30715 ft 454 kts 13°
2026-05-06 19:45 -25.76232 -48.64022 31042 ft 458 kts 13°
2026-05-06 19:46 -25.73160 -48.63042 31362 ft 461 kts 13°
2026-05-06 19:46 -25.70051 -48.62051 31659 ft 465 kts 12°
2026-05-06 19:46 -25.66923 -48.61058 31969 ft 469 kts 13°
2026-05-06 19:46 -25.63776 -48.60066 32203 ft 472 kts 13°
2026-05-06 19:47 -25.60600 -48.59064 32500 ft 475 kts 13°
2026-05-06 19:47 -25.57408 -48.58051 32787 ft 478 kts 13°
2026-05-06 19:47 -25.54239 -48.57044 33070 ft 481 kts 13°
2026-05-06 19:47 -25.51007 -48.56019 33351 ft 484 kts 13°
2026-05-06 19:48 -25.47759 -48.54991 33629 ft 487 kts 13°
2026-05-06 19:48 -25.45545 -48.54292 33813 ft 489 kts 13°
2026-05-06 19:48 -25.42263 -48.53255 34085 ft 492 kts 13°
2026-05-06 19:48 -25.38956 -48.52211 34335 ft 495 kts 13°
2026-05-06 19:49 -25.35646 -48.51125 34500 ft 498 kts 13°
2026-05-06 19:49 -25.32346 -48.50094 34749 ft 500 kts 12°
2026-05-06 19:49 -25.28993 -48.49054 35023 ft 501 kts 12°
2026-05-06 19:49 -25.25625 -48.48046 35125 ft 504 kts 12°
2026-05-06 19:50 -25.18777 -48.45877 35125 ft 517 kts 13°
2026-05-06 19:50 -25.11823 -48.43669 35113 ft 522 kts 13°
2026-05-06 19:51 -25.04865 -48.41250 35114 ft 523 kts 16°
2026-05-06 19:51 -24.98031 -48.38691 35100 ft 514 kts 16°
2026-05-06 19:52 -24.91283 -48.36203 35122 ft 514 kts 16°
2026-05-06 19:52 -24.84465 -48.33734 35107 ft 515 kts 16°
2026-05-06 19:53 -24.77643 -48.31278 35109 ft 516 kts 16°
2026-05-06 19:53 -24.70813 -48.28819 35119 ft 517 kts 16°
2026-05-06 19:54 -24.64031 -48.26372 35126 ft 515 kts 16°
2026-05-06 19:54 -24.57211 -48.23916 35115 ft 515 kts 16°
2026-05-06 19:55 -24.50378 -48.21472 35115 ft 517 kts 16°
2026-05-06 19:55 -24.43514 -48.19015 35120 ft 518 kts 16°
2026-05-06 19:56 -24.36655 -48.16557 35111 ft 519 kts 17°
2026-05-06 19:56 -24.30033 -48.13362 35125 ft 521 kts 28°
2026-05-06 19:57 -24.23697 -48.09483 35123 ft 522 kts 29°
2026-05-06 19:57 -24.17392 -48.05637 35112 ft 522 kts 28°
2026-05-06 19:58 -24.10997 -48.01848 35109 ft 521 kts 27°
2026-05-06 19:58 -24.04596 -47.98099 35108 ft 521 kts 27°
2026-05-06 19:59 -24.01383 -47.96218 34608 ft 525 kts 28°
2026-05-06 19:59 -23.98163 -47.94332 33989 ft 524 kts 28°
2026-05-06 19:59 -23.94945 -47.92446 33268 ft 525 kts 28°
2026-05-06 19:59 -23.91767 -47.90584 32565 ft 524 kts 28°
2026-05-06 20:00 -23.88551 -47.88700 31844 ft 524 kts 28°
2026-05-06 20:00 -23.85333 -47.86817 31114 ft 524 kts 28°
2026-05-06 20:00 -23.82125 -47.84941 30582 ft 519 kts 28°
2026-05-06 20:00 -23.78959 -47.83090 30039 ft 514 kts 28°
2026-05-06 20:01 -23.75879 -47.81146 29424 ft 509 kts 37°
2026-05-06 20:01 -23.73282 -47.78566 28946 ft 499 kts 47°
2026-05-06 20:01 -23.70864 -47.75864 28362 ft 494 kts 47°
2026-05-06 20:01 -23.68454 -47.73222 27814 ft 489 kts 46°
2026-05-06 20:02 -23.66030 -47.70643 27289 ft 483 kts 45°
2026-05-06 20:02 -23.63615 -47.68113 26850 ft 476 kts 45°
2026-05-06 20:02 -23.61279 -47.65666 26516 ft 466 kts 45°
2026-05-06 20:02 -23.58959 -47.63232 26176 ft 458 kts 45°
2026-05-06 20:03 -23.56682 -47.60841 25851 ft 452 kts 45°
2026-05-06 20:03 -23.54435 -47.58482 25520 ft 445 kts 45°
2026-05-06 20:03 -23.52219 -47.56157 25197 ft 441 kts 45°
2026-05-06 20:03 -23.50008 -47.53836 24881 ft 444 kts 45°
2026-05-06 20:04 -23.47775 -47.51494 24519 ft 445 kts 45°
2026-05-06 20:04 -23.45548 -47.49161 24184 ft 441 kts 45°
2026-05-06 20:04 -23.43343 -47.46854 23864 ft 437 kts 45°
2026-05-06 20:04 -23.41159 -47.44569 23508 ft 433 kts 45°
2026-05-06 20:05 -23.38997 -47.42307 23152 ft 429 kts 45°
2026-05-06 20:05 -23.36880 -47.40093 22860 ft 424 kts 45°
2026-05-06 20:05 -23.34769 -47.37883 22580 ft 419 kts 45°
2026-05-06 20:05 -23.32674 -47.35692 22324 ft 415 kts 45°
2026-05-06 20:06 -23.30597 -47.33521 22070 ft 413 kts 45°
2026-05-06 20:06 -23.28522 -47.31353 21822 ft 415 kts 45°
2026-05-06 20:06 -23.26429 -47.29168 21567 ft 416 kts 45°
2026-05-06 20:06 -23.24352 -47.27001 21304 ft 412 kts 45°
2026-05-06 20:07 -23.22287 -47.24849 21049 ft 409 kts 45°
2026-05-06 20:07 -23.20237 -47.22714 20822 ft 406 kts 45°
2026-05-06 20:07 -23.18194 -47.20586 20580 ft 404 kts 45°
2026-05-06 20:07 -23.16192 -47.18500 20335 ft 402 kts 45°
2026-05-06 20:08 -23.14182 -47.16401 20091 ft 400 kts 46°
2026-05-06 20:08 -23.12269 -47.14217 19853 ft 397 kts 50°
2026-05-06 20:08 -23.10422 -47.11990 19612 ft 395 kts 50°
2026-05-06 20:08 -23.08583 -47.09782 19369 ft 394 kts 50°
2026-05-06 20:09 -23.06745 -47.07599 19038 ft 394 kts 49°
2026-05-06 20:09 -23.04858 -47.05373 18467 ft 398 kts 49°
2026-05-06 20:09 -23.02979 -47.03164 17826 ft 397 kts 49°
2026-05-06 20:09 -23.01143 -47.01008 17244 ft 389 kts 49°
2026-05-06 20:10 -22.99334 -46.98884 16681 ft 376 kts 49°
2026-05-06 20:10 -22.97582 -46.96825 16163 ft 365 kts 49°
2026-05-06 20:10 -22.95868 -46.94811 15694 ft 362 kts 49°
2026-05-06 20:10 -22.94163 -46.92806 15226 ft 360 kts 49°
2026-05-06 20:11 -22.92469 -46.90816 14754 ft 355 kts 49°
2026-05-06 20:11 -22.90835 -46.88899 14326 ft 344 kts 49°
2026-05-06 20:11 -22.89256 -46.87050 14159 ft 325 kts 49°
2026-05-06 20:11 -22.87744 -46.85277 14105 ft 311 kts 49°
2026-05-06 20:12 -22.86350 -46.83470 14101 ft 313 kts 58°
2026-05-06 20:12 -22.85303 -46.81455 14103 ft 309 kts 64°
2026-05-06 20:12 -22.84323 -46.79380 14109 ft 309 kts 64°
2026-05-06 20:12 -22.83327 -46.77318 14110 ft 309 kts 63°
2026-05-06 20:13 -22.82306 -46.75258 14118 ft 309 kts 63°
2026-05-06 20:13 -22.81289 -46.73199 14110 ft 309 kts 66°
2026-05-06 20:13 -22.80558 -46.71010 14116 ft 308 kts 75°
2026-05-06 20:13 -22.80004 -46.68795 14115 ft 308 kts 76°
2026-05-06 20:14 -22.79437 -46.66552 14109 ft 309 kts 76°
2026-05-06 20:14 -22.78847 -46.64316 14121 ft 309 kts 75°
2026-05-06 20:14 -22.78328 -46.62065 14116 ft 308 kts 83°
2026-05-06 20:14 -22.78174 -46.59755 14124 ft 307 kts 89°
2026-05-06 20:15 -22.78100 -46.57435 14117 ft 307 kts 89°
2026-05-06 20:15 -22.78006 -46.55114 14126 ft 307 kts 88°
2026-05-06 20:15 -22.77895 -46.52803 14129 ft 307 kts 88°
2026-05-06 20:15 -22.77974 -46.50493 14125 ft 306 kts 99°
2026-05-06 20:16 -22.78354 -46.48227 14139 ft 306 kts 102°
2026-05-06 20:16 -22.78759 -46.45963 14130 ft 306 kts 101°
2026-05-06 20:16 -22.79137 -46.43720 14134 ft 306 kts 101°
2026-05-06 20:16 -22.79518 -46.41453 14136 ft 305 kts 104°
2026-05-06 20:17 -22.80236 -46.39293 14142 ft 305 kts 114°
2026-05-06 20:17 -22.81139 -46.37214 14138 ft 305 kts 115°
2026-05-06 20:17 -22.82171 -46.35198 14127 ft 306 kts 129°
2026-05-06 20:17 -22.83811 -46.33754 14147 ft 307 kts 152°
2026-05-06 20:18 -22.85861 -46.33091 14026 ft 313 kts 174°
2026-05-06 20:18 -22.88039 -46.33346 13740 ft 319 kts 197°
2026-05-06 20:18 -22.90051 -46.34409 13437 ft 322 kts 209°
2026-05-06 20:18 -22.91957 -46.35668 13157 ft 319 kts 211°
2026-05-06 20:19 -22.93798 -46.36923 12886 ft 314 kts 211°
2026-05-06 20:19 -22.95660 -46.38197 12611 ft 311 kts 211°
2026-05-06 20:19 -22.97467 -46.39427 12346 ft 309 kts 211°
2026-05-06 20:19 -22.99292 -46.40658 12091 ft 308 kts 211°
2026-05-06 20:20 -23.01115 -46.41876 11826 ft 307 kts 211°
2026-05-06 20:20 -23.02936 -46.43088 11560 ft 307 kts 211°
2026-05-06 20:20 -23.04752 -46.44295 11302 ft 306 kts 211°
2026-05-06 20:20 -23.06573 -46.45503 11042 ft 306 kts 211°
2026-05-06 20:21 -23.08390 -46.46710 10797 ft 306 kts 211°
2026-05-06 20:21 -23.10203 -46.47913 10526 ft 305 kts 211°
2026-05-06 20:21 -23.12010 -46.49112 10265 ft 302 kts 212°
2026-05-06 20:21 -23.13796 -46.50296 10008 ft 300 kts 212°
2026-05-06 20:22 -23.15571 -46.51473 9726 ft 297 kts 212°
2026-05-06 20:22 -23.17328 -46.52639 9458 ft 294 kts 212°
2026-05-06 20:22 -23.19048 -46.53781 9192 ft 284 kts 212°
2026-05-06 20:22 -23.20703 -46.54883 8986 ft 281 kts 212°
2026-05-06 20:23 -23.22342 -46.56019 8741 ft 278 kts 213°
2026-05-06 20:23 -23.23955 -46.57170 8518 ft 276 kts 213°
2026-05-06 20:23 -23.25551 -46.58309 8282 ft 273 kts 213°
2026-05-06 20:23 -23.27136 -46.59438 8073 ft 271 kts 213°
2026-05-06 20:24 -23.28700 -46.60551 7874 ft 267 kts 212°
2026-05-06 20:24 -23.30210 -46.61625 7823 ft 252 kts 213°
2026-05-06 20:24 -23.31643 -46.62644 7716 ft 239 kts 212°
2026-05-06 20:24 -23.32999 -46.63606 7621 ft 226 kts 213°
2026-05-06 20:25 -23.34281 -46.64517 7523 ft 214 kts 213°
2026-05-06 20:25 -23.35489 -46.65374 7434 ft 201 kts 213°
2026-05-06 20:25 -23.36639 -46.66193 7217 ft 197 kts 213°
2026-05-06 20:25 -23.37783 -46.67007 6963 ft 194 kts 213°
2026-05-06 20:26 -23.38901 -46.67802 6733 ft 192 kts 213°
2026-05-06 20:26 -23.40012 -46.68592 6502 ft 190 kts 213°
2026-05-06 20:26 -23.41124 -46.69380 6236 ft 189 kts 211°
2026-05-06 20:26 -23.42327 -46.69743 6000 ft 179 kts 168°
2026-05-06 20:27 -23.43407 -46.69201 5904 ft 172 kts 136°
2026-05-06 20:27 -23.44123 -46.68180 5723 ft 168 kts 123°
2026-05-06 20:27 -23.44784 -46.67137 5552 ft 165 kts 122°
2026-05-06 20:27 -23.45426 -46.66128 5386 ft 160 kts 122°
2026-05-06 20:28 -23.46060 -46.65123 5226 ft 163 kts 123°
2026-05-06 20:28 -23.46705 -46.64100 5080 ft 164 kts 122°
2026-05-06 20:28 -23.47105 -46.62974 4945 ft 157 kts 95°
2026-05-06 20:28 -23.46957 -46.61827 4775 ft 150 kts 80°
2026-05-06 20:29 -23.46759 -46.60715 4706 ft 149 kts 77°
2026-05-06 20:29 -23.46487 -46.59586 4544 ft 157 kts 76°
2026-05-06 20:29 -23.46189 -46.58471 4317 ft 148 kts 75°
2026-05-06 20:29 -23.45908 -46.57442 4114 ft 141 kts 76°
2026-05-06 20:30 -23.45643 -46.56423 3949 ft 139 kts 76°
2026-05-06 20:30 -23.45061 -46.54385 3592 ft 137 kts 76°
2026-05-06 20:30 -23.44781 -46.53375 3390 ft 139 kts 77°
2026-05-06 20:31 -23.44528 -46.52366 3185 ft 138 kts 76°
2026-05-06 20:31 -23.44226 -46.51346 2989 ft 143 kts 75°
2026-05-06 20:31 -23.43964 -46.50318 2850 ft 144 kts 75°
2026-05-06 20:31 -23.43677 -46.49254 2684 ft 146 kts 73°
2026-05-06 20:32 -23.43392 -46.48204 2502 ft 142 kts 73°
2026-05-06 20:32 -23.43142 -46.47269 2462 ft 111 kts 74°
2026-05-06 20:32 -23.42965 -46.46622 2471 ft 68 kts 73°
2026-05-06 20:32 -23.42878 -46.46299 2466 ft 31 kts 73°
2026-05-06 20:33 -23.42820 -46.46192 2465 ft 15 kts 20°
2026-05-06 20:33 -23.42719 -46.46214 2470 ft 15 kts 333°
2026-05-06 20:33 -23.42709 -46.46315 2469 ft 14 kts 253°
2026-05-06 20:33 -23.42734 -46.46417 2462 ft 14 kts 252°
2026-05-06 20:34 -23.42762 -46.46513 2462 ft 13 kts 251°
2026-05-06 20:34 -23.42788 -46.46605 2466 ft 13 kts 253°
2026-05-06 20:34 -23.42805 -46.46666 2467 ft 12 kts 253°
2026-05-06 20:34 -23.42827 -46.46755 2466 ft 12 kts 254°
2026-05-06 20:35 -23.42850 -46.46843 2468 ft 12 kts 255°
2026-05-06 20:35 -23.42874 -46.46927 2468 ft 12 kts 252°
2026-05-06 20:35 -23.42898 -46.47012 2470 ft 12 kts 253°
2026-05-06 20:35 -23.42921 -46.47100 2470 ft 13 kts 253°
2026-05-06 20:36 -23.42947 -46.47197 2465 ft 14 kts 253°
2026-05-06 20:36 -23.42975 -46.47298 2465 ft 14 kts 252°
2026-05-06 20:36 -23.43000 -46.47396 2465 ft 13 kts 258°
2026-05-06 20:36 -23.42943 -46.47460 2463 ft 13 kts 340°
2026-05-06 20:37 -23.42873 -46.47511 2466 ft 12 kts 295°
2026-05-06 20:37 -23.42888 -46.47602 2465 ft 12 kts 255°
2026-05-06 20:37 -23.42911 -46.47689 2468 ft 12 kts 253°
2026-05-06 20:37 -23.42934 -46.47774 2464 ft 12 kts 255°
2026-05-06 20:38 -23.42957 -46.47857 2466 ft 11 kts 254°
2026-05-06 20:38 -23.42978 -46.47937 2465 ft 11 kts 253°
2026-05-06 20:38 -23.42999 -46.48016 2464 ft 11 kts 255°
2026-05-06 20:38 -23.43017 -46.48092 2468 ft 10 kts 269°
2026-05-06 20:39 -23.42969 -46.48137 2469 ft 10 kts 356°
2026-05-06 20:39 -23.42905 -46.48162 2469 ft 10 kts 339°
2026-05-06 20:39 -23.42839 -46.48170 2464 ft 9 kts 357°
2026-05-06 20:39 -23.42800 -46.48192 2464 ft 3 kts 268°
2026-05-06 20:40 -23.42805 -46.48215 2466 ft 3 kts 263°
2026-05-06 20:40 -23.42807 -46.48239 2469 ft 3 kts 264°
2026-05-06 20:40 -23.42807 -46.48241 2470 ft 0 kts 264°